Location: *
(45.4590°N, 16.3650°E)
Time: 10:55:32
(UTC+00:00)

Meteor 2-5 Rocket - Pass Details

Date: 17 January 2020
Orbit: 833 x 911 km, 81.2° (Epoch: 16 February)

Event Time Altitude Azimuth Distance (km) Brightness Sun altitude
Rises 16:50:06 0° 197° (SSW) 3,368 7.3 -12.2°
Reaches altitude 10° 16:52:31 10° 200° (SSW) 2,437 6.6 -12.6°
Maximum altitude 16:57:59 67° 282° (WNW) 904 4.1 -13.5°
Drops below altitude 10° 17:03:33 10° 6° (N) 2,470 5.9 -14.5°
Sets 17:06:01 0° 9° (N) 3,417 6.6 -14.9°
